Location: Carnières
(50.1682°N, 3.3474°E)
Time: 05:26:28
(UTC+00:00)

Cosmos 1570 Rocket - Pass Details

Date: 23 May 2024
Orbit: 761 x 786 km, 74.1° (Epoch: 19 June)

Event Time Altitude Azimuth Distance (km) Brightness Sun altitude
Rises 02:51:44 0° 334° (NNW) 3,265 7.5 -7.9°
Reaches altitude 10° 02:54:07 10° 333° (NNW) 2,337 6.8 -7.6°
Maximum altitude 02:59:25 74° 249° (WSW) 816 4.0 -7.0°
Drops below altitude 10° 03:04:42 10° 166° (SSE) 2,335 6.2 -6.4°
Sets 03:07:05 0° 164° (SSE) 3,262 7.0 -6.1°
